ZL2IH Weather Reports


Display with metric or nautical units.
time (UTC)temp
F
wind
direction
speed
MPH
gust
MPH
rain 1hr
in
rain 24hr
in
rain mn
in
humidity
%
barometer
mb
20260506044019 61 0.0 2.0 0.00 0.00 0.00 100 1028.1
20260506043019 61 0.0 1.0 0.00 0.00 0.00 100 1028.0
20260506042018 61 0.0 1.0 0.00 0.00 0.00 100 1028.0
20260506041018 62 0.0 1.0 0.00 0.00 0.00 100 1028.0
20260506040019 62 0.0 4.0 0.00 0.00 0.00 100 1028.0
20260506035018 62 0.0 2.0 0.00 0.00 0.00 100 1028.1
20260506034018 62 0.0 4.0 0.00 0.00 0.00 100 1028.1
20260506033038 62 0.0 2.0 0.00 0.00 0.00 100 1028.2
20260506032019 63 338 1.0 4.0 0.00 0.00 0.00 100 1028.1
20260506031018 63 338 1.0 4.0 0.00 0.00 0.00 100 1028.1
20260506030018 63 338 1.0 5.0 0.00 0.00 0.00 100 1028.1
20260506025018 63 338 1.0 4.0 0.00 0.00 0.00 100 1028.1
20260506024058 63 45 1.0 2.0 0.00 0.00 0.00 100 1028.0
20260506023018 63 338 1.0 4.0 0.00 0.00 0.00 100 1028.1
20260506022018 63 338 1.0 4.0 0.00 0.00 0.00 100 1028.2
20260506021018 63 0 1.0 6.0 0.00 0.00 0.00 100 1028.3
20260506020018 64 338 1.0 4.0 0.00 0.00 0.00 100 1028.3
20260506015018 64 338 1.0 5.0 0.00 0.00 0.00 100 1028.3
20260506014018 65 338 2.0 6.0 0.00 0.00 0.00 100 1028.3
20260506013058 64 315 1.0 7.0 0.00 0.00 0.00 100 1028.4
20260506012018 64 338 1.0 4.0 0.00 0.00 0.00 100 1028.3
20260506011059 63 338 2.0 5.0 0.00 0.00 0.00 100 1028.5
20260506010018 64 338 1.0 5.0 0.00 0.00 0.00 100 1028.6
20260506005019 64 338 1.0 6.0 0.00 0.00 0.00 100 1028.6
20260506004018 64 0 2.0 6.0 0.00 0.00 0.00 100 1028.8
20260506003017 63 338 1.0 4.0 0.00 0.00 0.00 100 1029.0
20260506002018 63 338 2.0 5.0 0.00 0.00 0.00 100 1029.0
20260506001018 63 338 2.0 5.0 0.00 0.00 0.00 100 1029.1
20260506000018 63 90 1.0 9.0 0.00 0.00 0.00 100 1029.1
20260505235018 63 338 2.0 6.0 0.00 0.00 0.00 100 1029.1
20260505234018 63 315 2.0 5.0 0.00 0.00 0.00 100 1029.3
20260505233018 63 338 1.0 5.0 0.00 0.00 0.00 100 1029.2
20260505232018 62 338 1.0 4.0 0.00 0.00 0.00 100 1029.2
20260505231018 62 338 1.0 5.0 0.00 0.00 0.00 100 1029.4
20260505230018 61 338 1.0 5.0 0.00 0.00 0.00 100 1029.3
20260505225017 62 68 1.0 4.0 0.00 0.00 0.00 100 1029.6
20260505224018 62 0 1.0 3.0 0.00 0.00 0.00 100 1029.5
20260505223019 62 90 1.0 4.0 0.00 0.00 0.00 100 1029.6
20260505222017 62 0.0 4.0 0.00 0.00 0.00 100 1029.3
20260505221018 61 0.0 4.0 0.00 0.00 0.00 100 1029.5
20260505220018 60 0.0 1.0 0.00 0.00 0.00 100 1029.5
20260505215018 59 0.0 1.0 0.00 0.00 0.00 100 1029.5
20260505214018 58 0.0 1.0 0.00 0.00 0.00 100 1029.5
20260505213018 57 0.0 0.0 0.00 0.00 0.00 100 1029.6
20260505212018 57 0.0 0.0 0.00 0.00 0.00 100 1029.8
20260505211058 56 0.0 0.0 0.00 0.00 0.00 100 1029.8
20260505210018 56 0.0 0.0 0.00 0.00 0.00 100 1029.9
20260505205018 55 0.0 0.0 0.00 0.00 0.00 100 1029.7
20260505204018 55 0.0 0.0 0.00 0.00 0.00 100 1029.7
20260505203017 54 0.0 0.0 0.00 0.00 0.00 100 1029.6
20260505202017 54 0.0 0.0 0.00 0.00 0.00 100 1029.6
20260505201018 54 0.0 0.0 0.00 0.00 0.00 100 1029.5
20260505200017 53 0.0 0.0 0.00 0.00 0.00 100 1029.4
20260505195058 53 0.0 0.0 0.00 0.00 0.00 100 1029.4
20260505194017 53 0.0 0.0 0.00 0.00 0.00 100 1029.4
20260505193017 53 0.0 0.0 0.00 0.00 0.00 100 1029.3
20260505192058 53 0.0 0.0 0.00 0.00 0.00 100 1029.4
20260505191017 53 0.0 0.0 0.00 0.00 0.00 100 1029.4
20260505190017 53 0.0 0.0 0.00 0.00 0.00 100 1029.3
20260505185017 53 0.0 0.0 0.00 0.00 0.00 100 1029.3
20260505184019 53 0.0 0.0 0.00 0.00 0.00 100 1029.4
20260505183017 53 0.0 0.0 0.00 0.00 0.00 100 1029.4
20260505182017 53 0.0 0.0 0.00 0.00 0.00 100 1029.2
20260505181017 53 0.0 0.0 0.00 0.00 0.00 100 1029.4
20260505180018 53 0.0 0.0 0.00 0.00 0.00 100 1029.5
20260505175017 53 0.0 0.0 0.00 0.00 0.00 100 1029.5
20260505174017 53 0.0 0.0 0.00 0.00 0.00 100 1029.5
20260505173017 53 0.0 0.0 0.00 0.00 0.00 100 1029.4
20260505172037 53 0.0 0.0 0.00 0.00 0.00 100 1029.4
20260505171017 53 0.0 0.0 0.00 0.00 0.00 100 1029.5
20260505170018 53 0.0 0.0 0.00 0.00 0.00 100 1029.3
20260505165017 53 0.0 0.0 0.00 0.00 0.00 100 1029.4
20260505164017 53 0.0 0.0 0.00 0.00 0.00 100 1029.5
20260505163017 54 0.0 0.0 0.00 0.00 0.00 100 1029.6
20260505162017 54 0.0 0.0 0.00 0.00 0.00 100 1029.6
20260505161017 54 0.0 0.0 0.00 0.00 0.00 100 1029.7
20260505153017 54 0.0 0.0 0.00 0.00 0.00 100 1030.1
20260505152017 54 0.0 0.0 0.00 0.00 0.00 100 1030.2
20260505151059 54 0.0 0.0 0.00 0.00 0.00 100 1030.2
20260505125018 54 0.0 0.0 0.00 0.00 0.00 100 1031.3
20260505124017 54 0.0 0.0 0.00 0.00 0.00 100 1031.3
20260505123017 54 0.0 0.0 0.00 0.00 0.00 100 1031.3
20260505122057 54 0.0 0.0 0.00 0.00 0.00 100 1031.3
20260505121017 54 0.0 0.0 0.00 0.00 0.00 100 1031.3
20260505120057 54 0.0 0.0 0.00 0.00 0.00 100 1031.2
20260505115016 54 0.0 0.0 0.00 0.00 0.00 100 1031.2
20260505114016 54 0.0 0.0 0.00 0.00 0.00 100 1031.1
20260505113016 54 0.0 0.0 0.00 0.00 0.00 100 1031.2
20260505111017 54 0.0 0.0 0.00 0.00 0.00 100 1031.5
20260505102016 55 0.0 0.0 0.00 0.00 0.00 100 1031.7
20260505101019 55 0.0 0.0 0.00 0.00 0.00 100 1031.9
20260505100019 55 0.0 0.0 0.00 0.00 0.00 100 1031.8
20260505095139 55 0.0 0.0 0.00 0.00 0.00 100 1031.8
20260505094018 55 0.0 0.0 0.00 0.00 0.00 100 1031.8
20260505093018 55 0.0 0.0 0.00 0.00 0.00 100 1031.7
20260505092018 54 0.0 0.0 0.00 0.00 0.00 100 1031.5
20260505091019 54 0.0 0.0 0.00 0.00 0.00 100 1031.4
20260505090018 54 0.0 0.0 0.00 0.00 0.00 100 1031.3
20260505085039 54 0.0 0.0 0.00 0.00 0.00 100 1031.3
20260505084018 54 0.0 0.0 0.00 0.00 0.00 100 1031.4
20260505083018 54 0.0 0.0 0.00 0.00 0.00 100 1031.5
20260505082018 54 0.0 0.0 0.00 0.00 0.00 100 1031.5
20260505081018 54 0.0 0.0 0.00 0.00 0.00 100 1031.5
20260505080019 55 0.0 0.0 0.00 0.00 0.00 100 1031.6
20260505075040 55 0.0 0.0 0.00 0.00 0.00 100 1031.6
20260505074018 55 0.0 1.0 0.00 0.00 0.00 100 1031.7
20260505073018 55 0.0 1.0 0.00 0.00 0.00 100 1031.6
20260505072018 55 0.0 0.0 0.00 0.00 0.00 100 1031.6
20260505071018 55 0.0 0.0 0.00 0.00 0.00 100 1031.6
20260505070018 55 0.0 0.0 0.00 0.00 0.00 100 1031.5
20260505065018 55 0.0 0.0 0.00 0.00 0.00 100 1031.3
20260505064018 55 0.0 0.0 0.00 0.00 0.00 100 1031.2
20260505063018 55 0.0 0.0 0.00 0.00 0.00 100 1031.3
20260505062019 55 0.0 0.0 0.00 0.00 0.00 100 1031.3
20260505061018 55 0.0 0.0 0.00 0.00 0.00 100 1031.3
20260505060018 56 0.0 0.0 0.00 0.00 0.00 100 1031.2
20260505055018 56 0.0 0.0 0.00 0.00 0.00 100 1031.1
20260505054018 56 0.0 0.0 0.00 0.00 0.00 100 1031.1
20260505053018 56 0.0 0.0 0.00 0.00 0.00 100 1031.2
20260505052018 57 0.0 0.0 0.00 0.00 0.00 100 1031.3
20260505051018 57 0.0 0.0 0.00 0.00 0.00 100 1031.3